Location: Kumla
(59.1265°N, 15.1401°E)
Time: 20:54:29
(UTC+01:00)

Vanguard 2 Rocket - Pass Details

Date: 06 December 2023
Orbit: 554 x 3309 km, 32.9° (Epoch: 28 February)

Event Time Altitude Azimuth Distance (km) Brightness Sun altitude
Rises 13:19:23 0° 201° (SSW) 6,319 14.1 6.3°
Reaches altitude 10° 13:25:05 10° 186° (S) 5,700 12.8 6.1°
Maximum altitude 13:36:11 20° 148° (SSE) 5,353 11.3 5.5°
Drops below altitude 10° 13:48:09 10° 111° (ESE) 6,232 11.1 4.8°
Sets 13:54:48 0° 98° (E) 7,084 11.2 4.4°
